EW8275 Weather Reports


Display with metric or nautical units.
time (UTC)temp
F
wind
direction
speed
MPH
gust
MPH
rain 1hr
in
rain 24hr
in
rain mn
in
humidity
%
barometer
mb
20210614033539 58 69 1.0 3.0 0.00 0.00 0.00 89 1021.6
20210614033042 58 68 2.0 3.0 0.00 0.00 0.00 89 1021.6
20210614032533 58 68 0.0 3.0 0.00 0.00 0.00 89 1021.6
20210614032028 58 68 2.0 3.0 0.00 0.00 0.00 88 1021.6
20210614031536 58 68 1.0 3.0 0.00 0.00 0.00 88 1021.7
20210614031033 58 67 2.0 3.0 0.00 0.00 0.00 89 1021.6
20210614030600 58 65 0.0 0.0 0.00 0.00 0.00 88 1021.7
20210614030038 58 65 0.0 1.0 0.00 0.00 0.00 88 1021.7
20210614025537 58 65 0.0 2.0 0.00 0.00 0.00 89 1021.7
20210614025033 58 65 0.0 2.0 0.00 0.00 0.00 88 1021.7
20210614024540 58 65 0.0 2.0 0.00 0.00 0.00 88 1021.6
20210614024054 58 65 0.0 3.0 0.00 0.00 0.00 88 1021.7
20210614023527 58 64 0.0 2.0 0.00 0.00 0.00 88 1021.7
20210614023035 58 64 0.0 2.0 0.00 0.00 0.00 87 1021.7
20210614022539 58 64 0.0 2.0 0.00 0.00 0.00 87 1021.8
20210614022040 58 64 0.0 2.0 0.00 0.00 0.00 88 1021.8
20210614021556 58 64 0.0 1.0 0.00 0.00 0.00 87 1021.8
20210614021027 58 64 0.0 0.0 0.00 0.00 0.00 87 1021.8
20210614020536 59 64 0.0 3.0 0.00 0.00 0.00 87 1021.8
20210614020044 59 64 0.0 3.0 0.00 0.00 0.00 87 1021.8
20210614015539 59 64 0.0 1.0 0.00 0.00 0.00 87 1021.9
20210614015033 59 64 0.0 1.0 0.00 0.00 0.00 87 1021.9
20210614014540 59 64 0.0 1.0 0.00 0.00 0.00 87 1022.0
20210614014038 59 64 0.0 2.0 0.00 0.00 0.00 88 1022.0
20210614013540 59 64 0.0 2.0 0.00 0.00 0.00 90 1022.0
20210614013044 58 39 0.0 2.0 0.00 0.00 0.00 92 1022.0
20210614012538 57 40 0.0 2.0 0.00 0.00 0.00 93 1022.1
20210614012036 57 39 0.0 2.0 0.00 0.00 0.00 93 1022.2
20210614011608 57 39 0.0 2.0 0.00 0.00 0.00 93 1022.2
20210614011028 58 38 0.0 1.0 0.00 0.00 0.00 93 1022.4
20210614010537 57 38 0.0 1.0 0.00 0.00 0.00 93 1022.4
20210614010057 57 38 0.0 0.0 0.00 0.00 0.00 93 1022.5
20210614005541 57 38 0.0 0.0 0.00 0.00 0.00 93 1022.6
20210614005034 57 38 0.0 0.0 0.00 0.00 0.00 92 1022.7
20210614004538 57 38 0.0 0.0 0.00 0.00 0.00 92 1022.8
20210614004041 57 38 0.0 0.0 0.00 0.00 0.00 92 1022.8
20210614003551 57 38 0.0 0.0 0.00 0.00 0.00 91 1022.9
20210614003026 57 38 0.0 0.0 0.00 0.00 0.00 91 1022.9
20210614002534 57 38 0.0 0.0 0.00 0.00 0.00 90 1022.9
20210614002025 58 38 0.0 0.0 0.00 0.00 0.00 90 1023.0
20210614001538 57 38 0.0 0.0 0.00 0.00 0.00 89 1023.0
20210614001037 57 38 0.0 0.0 0.00 0.00 0.00 89 1023.0
20210614000542 57 38 0.0 0.0 0.00 0.00 0.00 89 1023.1
20210614000034 57 38 0.0 0.0 0.00 0.00 0.00 89 1023.1
20210613235601 58 38 0.0 0.0 0.00 0.00 0.00 89 1023.2
20210613235039 58 38 0.0 0.0 0.00 0.00 0.00 89 1023.3
20210613234539 58 38 0.0 0.0 0.00 0.00 0.00 89 1023.4
20210613234035 58 38 0.0 0.0 0.00 0.00 0.00 89 1023.4
20210613233540 58 38 0.0 0.0 0.00 0.00 0.00 88 1023.5
20210613233050 58 38 0.0 0.0 0.00 0.00 0.00 88 1023.5
20210613232541 58 38 0.0 0.0 0.00 0.00 0.00 87 1023.5
20210613232055 58 38 0.0 0.0 0.00 0.00 0.00 86 1023.5
20210613231538 58 38 0.0 0.0 0.00 0.00 0.00 86 1023.4
20210613231044 59 38 0.0 0.0 0.00 0.00 0.00 85 1023.6
20210613230541 59 38 0.0 0.0 0.00 0.00 0.00 86 1023.6
20210613230045 59 38 0.0 0.0 0.00 0.00 0.00 87 1023.6
20210613225534 59 38 0.0 0.0 0.00 0.00 0.00 87 1023.7
20210613225040 59 38 0.0 0.0 0.00 0.00 0.00 87 1023.8
20210613224553 59 38 0.0 1.0 0.00 0.00 0.00 87 1023.9
20210613224035 59 38 0.0 1.0 0.00 0.00 0.00 86 1023.8
20210613223549 59 38 0.0 1.0 0.00 0.00 0.00 86 1023.9
20210613223040 59 38 0.0 0.0 0.00 0.00 0.00 85 1023.9
20210613222546 60 38 0.0 0.0 0.00 0.00 0.00 85 1024.0
20210613222045 60 38 0.0 0.0 0.00 0.00 0.00 86 1023.9
20210613221548 60 38 0.0 0.0 0.00 0.00 0.00 86 1023.9
20210613221031 60 38 0.0 1.0 0.00 0.00 0.00 86 1023.9
20210613220533 60 38 0.0 1.0 0.00 0.00 0.00 85 1023.9
20210613220041 60 38 0.0 0.0 0.00 0.00 0.00 85 1023.9
20210613215535 60 38 0.0 2.0 0.00 0.00 0.00 84 1024.0
20210613215036 61 38 0.0 2.0 0.00 0.00 0.00 84 1024.0
20210613214541 61 38 0.0 1.0 0.00 0.00 0.00 84 1024.0
20210613214026 61 38 0.0 2.0 0.00 0.00 0.00 84 1024.1
20210613213535 61 38 0.0 2.0 0.00 0.00 0.00 84 1024.1
20210613213058 61 38 0.0 1.0 0.00 0.00 0.00 84 1024.2
20210613212537 61 38 0.0 0.0 0.00 0.00 0.00 83 1024.2
20210613212038 61 38 0.0 0.0 0.00 0.00 0.00 82 1024.2
20210613211539 62 38 0.0 1.0 0.00 0.00 0.00 82 1024.2
20210613211037 62 38 0.0 1.0 0.00 0.00 0.00 82 1024.1
20210613210532 62 38 0.0 1.0 0.00 0.00 0.00 81 1024.1
20210613210026 62 38 0.0 1.0 0.00 0.00 0.00 80 1024.3
20210613205545 63 38 0.0 1.0 0.00 0.00 0.00 80 1024.3
20210613205037 63 38 0.0 1.0 0.00 0.00 0.00 80 1024.4
20210613204541 63 38 0.0 1.0 0.00 0.00 0.00 79 1024.4
20210613204043 63 38 0.0 2.0 0.00 0.00 0.00 79 1024.4
20210613203538 64 38 0.0 2.0 0.00 0.00 0.00 79 1024.3
20210613203102 64 38 0.0 2.0 0.00 0.00 0.00 79 1024.4
20210613202547 64 38 0.0 1.0 0.00 0.00 0.00 78 1024.4
20210613202056 64 38 0.0 1.0 0.00 0.00 0.00 77 1024.5
20210613201540 65 38 0.0 1.0 0.00 0.00 0.00 76 1024.5
20210613201039 65 38 0.0 2.0 0.00 0.00 0.00 76 1024.6
20210613200557 65 38 0.0 2.0 0.00 0.00 0.00 75 1024.6
20210613200037 66 38 1.0 2.0 0.00 0.00 0.00 75 1024.6
20210613195538 66 38 0.0 2.0 0.00 0.00 0.00 74 1024.6
20210613195100 66 38 0.0 1.0 0.00 0.00 0.00 74 1024.6
20210613194551 66 38 0.0 2.0 0.00 0.00 0.00 73 1024.7
20210613194030 67 38 0.0 2.0 0.00 0.00 0.00 73 1024.7
20210613193540 67 38 0.0 2.0 0.00 0.00 0.00 71 1024.7
20210613193035 67 38 0.0 4.0 0.00 0.00 0.00 71 1024.8
20210613192547 68 38 0.0 4.0 0.00 0.00 0.00 71 1024.8
20210613192036 68 39 0.0 3.0 0.00 0.00 0.00 70 1024.7
20210613191547 68 39 1.0 4.0 0.00 0.00 0.00 68 1024.7
20210613191045 68 39 0.0 4.0 0.00 0.00 0.00 67 1024.7
20210613190552 69 39 1.0 3.0 0.00 0.00 0.00 67 1024.7
20210613190031 69 39 1.0 5.0 0.00 0.00 0.00 65 1024.6
20210613185527 69 46 1.0 5.0 0.00 0.00 0.00 65 1024.6
20210613185046 69 47 2.0 4.0 0.00 0.00 0.00 67 1024.7
20210613184546 70 76 1.0 3.0 0.00 0.00 0.00 65 1024.7
20210613184055 70 76 0.0 5.0 0.00 0.00 0.00 65 1024.7
20210613183607 70 76 1.0 5.0 0.00 0.00 0.00 63 1024.7
20210613183045 70 76 1.0 4.0 0.00 0.00 0.00 61 1024.7
20210613182538 71 76 1.0 2.0 0.00 0.00 0.00 61 1024.7
20210613182031 70 76 0.0 3.0 0.00 0.00 0.00 62 1024.7
20210613181538 71 76 0.0 3.0 0.00 0.00 0.00 63 1024.8
20210613181035 71 76 2.0 3.0 0.00 0.00 0.00 59 1024.8
20210613180558 71 76 1.0 4.0 0.00 0.00 0.00 57 1024.9
20210613180024 71 64 0.0 5.0 0.00 0.00 0.00 59 1024.9
20210613175549 71 63 2.0 5.0 0.00 0.00 0.00 59 1024.9
20210613175026 72 63 1.0 3.0 0.00 0.00 0.00 60 1024.9
20210613174546 72 70 0.0 4.0 0.00 0.00 0.00 59 1024.9
20210613174041 72 70 1.0 4.0 0.00 0.00 0.00 57 1024.9
20210613173536 72 64 1.0 3.0 0.00 0.00 0.00 57 1024.9
20210613173046 73 63 2.0 3.0 0.00 0.00 0.00 59 1025.0
20210613172540 73 63 0.0 3.0 0.00 0.00 0.00 58 1025.0
20210613172026 73 63 1.0 5.0 0.00 0.00 0.00 57 1025.1
20210613171559 73 64 2.0 5.0 0.00 0.00 0.00 58 1025.1
20210613171031 73 82 1.0 5.0 0.00 0.00 0.00 57 1025.1
20210613170559 73 82 2.0 5.0 0.00 0.00 0.00 55 1025.2
20210613170026 73 71 1.0 4.0 0.00 0.00 0.00 56 1025.2
20210613165533 73 69 1.0 4.0 0.00 0.00 0.00 55 1025.2
20210613165052 73 63 0.0 4.0 0.00 0.00 0.00 55 1025.3
20210613164537 73 62 1.0 4.0 0.00 0.00 0.00 56 1025.3
20210613164051 73 63 0.0 3.0 0.00 0.00 0.00 56 1025.3
20210613163604 73 61 1.0 3.0 0.00 0.00 0.00 55 1025.3
20210613163047 74 59 1.0 6.0 0.00 0.00 0.00 54 1025.3
20210613162534 74 58 2.0 6.0 0.00 0.00 0.00 55 1025.3
20210613162042 74 99 1.0 6.0 0.00 0.00 0.00 55 1025.4
20210613161540 74 65 1.0 3.0 0.00 0.00 0.00 55 1025.4
20210613161026 74 63 1.0 8.0 0.00 0.00 0.00 58 1025.4
20210613160552 74 63 3.0 8.0 0.00 0.00 0.00 58 1025.4
20210613160103 74 94 2.0 6.0 0.00 0.00 0.00 56 1025.4
20210613155543 73 140 1.0 5.0 0.00 0.00 0.00 54 1025.5
20210613155054 74 56 2.0 6.0 0.00 0.00 0.00 54 1025.6
20210613154533 74 76 2.0 5.0 0.00 0.00 0.00 56 1025.5
20210613154024 74 34 0.0 4.0 0.00 0.00 0.00 54 1025.7
20210613153535 74 50 2.0 4.0 0.00 0.00 0.00 59 1025.7
20210613153036 73 50 1.0 6.0 0.00 0.00 0.00 55 1025.8
20210613152534 75 50 3.0 6.0 0.00 0.00 0.00 55 1025.9
20210613152043 74 310 1.0 4.0 0.00 0.00 0.00 56 1025.8
20210613151544 74 310 2.0 7.0 0.00 0.00 0.00 53 1025.9
20210613151028 75 355 2.0 7.0 0.00 0.00 0.00 56 1025.9
20210613150533 75 43 2.0 7.0 0.00 0.00 0.00 57 1025.9
20210613150042 75 19 1.0 7.0 0.00 0.00 0.00 58 1026.0
20210613145557 74 28 4.0 7.0 0.00 0.00 0.00 57 1026.0
20210613145037 74 272 2.0 4.0 0.00 0.00 0.00 52 1026.0
20210613144545 75 271 2.0 6.0 0.00 0.00 0.00 57 1026.1
20210613144038 75 272 2.0 6.0 0.00 0.00 0.00 55 1026.1
20210613143539 75 336 1.0 5.0 0.00 0.00 0.00 52 1026.2
20210613143031 75 315 2.0 5.0 0.00 0.00 0.00 55 1026.3
20210613142550 76 333 2.0 6.0 0.00 0.00 0.00 57 1026.4
20210613142045 76 350 4.0 6.0 0.00 0.00 0.00 56 1026.3
20210613141545 75 335 1.0 5.0 0.00 0.00 0.00 56 1026.4
20210613141048 75 346 2.0 5.0 0.00 0.00 0.00 56 1026.4
20210613140536 75 349 2.0 4.0 0.00 0.00 0.00 56 1026.5
20210613140038 75 342 2.0 4.0 0.00 0.00 0.00 55 1026.5
20210613135534 74 294 1.0 7.0 0.00 0.00 0.00 51 1026.5
20210613135025 76 302 3.0 7.0 0.00 0.00 0.00 53 1026.5
20210613134545 76 313 1.0 5.0 0.00 0.00 0.00 51 1026.6
20210613134035 77 12 1.0 5.0 0.00 0.00 0.00 54 1026.6
20210613133535 76 46 1.0 7.0 0.00 0.00 0.00 57 1026.5
20210613133039 76 46 4.0 7.0 0.00 0.00 0.00 52 1026.7
20210613132543 77 34 2.0 6.0 0.00 0.00 0.00 52 1026.7
20210613132042 77 329 1.0 3.0 0.00 0.00 0.00 56 1026.7
20210613131536 76 325 1.0 5.0 0.00 0.00 0.00 53 1026.8
20210613131054 76 324 2.0 5.0 0.00 0.00 0.00 54 1026.9
20210613130540 76 16 2.0 8.0 0.00 0.00 0.00 54 1026.9
20210613130049 75 67 2.0 8.0 0.00 0.00 0.00 55 1026.9
20210613125548 76 323 2.0 6.0 0.00 0.00 0.00 53 1027.0
20210613125043 76 317 1.0 5.0 0.00 0.00 0.00 54 1027.1
20210613124553 76 316 3.0 5.0 0.00 0.00 0.00 54 1027.1
20210613124043 75 65 2.0 5.0 0.00 0.00 0.00 56 1027.1
20210613123540 74 257 1.0 7.0 0.00 0.00 0.00 54 1027.2
20210613123031 75 10 4.0 7.0 0.00 0.00 0.00 58 1027.2
20210613122543 73 219 2.0 5.0 0.00 0.00 0.00 59 1027.3
20210613122030 74 223 2.0 5.0 0.00 0.00 0.00 52 1027.4
20210613121534 73 93 4.0 6.0 0.00 0.00 0.00 56 1027.4
20210613121040 75 24 3.0 5.0 0.00 0.00 0.00 52 1027.5
20210613120557 76 5 3.0 6.0 0.00 0.00 0.00 56 1027.6
20210613120046 75 355 3.0 6.0 0.00 0.00 0.00 60 1027.6
20210613115538 74 5 2.0 7.0 0.00 0.00 0.00 60 1027.7
20210613115048 75 350 2.0 7.0 0.00 0.00 0.00 59 1027.7
20210613114546 75 355 1.0 6.0 0.00 0.00 0.00 59 1027.7
20210613114049 75 341 2.0 6.0 0.00 0.00 0.00 56 1027.8
20210613113542 74 40 1.0 5.0 0.00 0.00 0.00 54 1027.7
20210613113030 75 38 2.0 6.0 0.00 0.00 0.00 57 1027.7
20210613112536 74 37 3.0 6.0 0.00 0.00 0.00 54 1027.7
20210613112030 74 311 1.0 4.0 0.00 0.00 0.00 59 1027.8
20210613111540 72 283 1.0 5.0 0.00 0.00 0.00 59 1027.8
20210613111029 71 283 2.0 5.0 0.00 0.00 0.00 62 1027.8
20210613110542 72 282 2.0 5.0 0.00 0.00 0.00 57 1027.8
20210613110032 72 11 2.0 5.0 0.00 0.00 0.00 63 1027.8
20210613105531 72 277 2.0 5.0 0.00 0.00 0.00 58 1027.8
20210613105037 72 278 2.0 5.0 0.00 0.00 0.00 58 1027.8
20210613104549 71 309 2.0 4.0 0.00 0.00 0.00 59 1027.8
20210613104043 72 110 1.0 6.0 0.00 0.00 0.00 61 1027.9
20210613103541 73 106 3.0 6.0 0.00 0.00 0.00 62 1027.9
20210613103100 73 38 2.0 6.0 0.00 0.00 0.00 62 1027.9
20210613102538 72 34 1.0 6.0 0.00 0.00 0.00 64 1027.9
20210613102040 70 20 2.0 6.0 0.00 0.00 0.00 67 1028.0
20210613101546 71 5 2.0 6.0 0.00 0.00 0.00 62 1028.0
20210613101053 71 12 3.0 5.0 0.00 0.00 0.00 62 1028.1
20210613100548 70 64 1.0 4.0 0.00 0.00 0.00 64 1028.0
20210613100046 69 300 1.0 5.0 0.00 0.00 0.00 66 1028.0
20210613095535 68 293 2.0 5.0 0.00 0.00 0.00 63 1028.1
20210613095027 69 13 1.0 6.0 0.00 0.00 0.00 68 1028.1
20210613094541 68 264 1.0 4.0 0.00 0.00 0.00 66 1028.2
20210613094049 68 262 1.0 3.0 0.00 0.00 0.00 66 1028.1
20210613093541 67 261 1.0 6.0 0.00 0.00 0.00 68 1028.1
20210613093046 66 261 3.0 6.0 0.00 0.00 0.00 62 1028.2
20210613092553 67 310 1.0 4.0 0.00 0.00 0.00 71 1028.1
20210613092039 67 310 1.0 4.0 0.00 0.00 0.00 68 1028.2
20210613091532 67 343 1.0 3.0 0.00 0.00 0.00 68 1028.1
20210613091051 67 343 0.0 4.0 0.00 0.00 0.00 70 1028.2
20210613090532 65 343 0.0 4.0 0.00 0.00 0.00 71 1028.1
20210613090030 65 342 1.0 5.0 0.00 0.00 0.00 73 1028.1
20210613085606 65 342 0.0 6.0 0.00 0.00 0.00 65 1028.2
20210613085031 65 322 3.0 6.0 0.00 0.00 0.00 71 1028.1
20210613084600 65 321 2.0 5.0 0.00 0.00 0.00 73 1028.1
20210613084035 64 304 2.0 5.0 0.00 0.00 0.00 73 1028.2
20210613083538 63 260 1.0 3.0 0.00 0.00 0.00 75 1028.1
20210613083041 63 260 2.0 6.0 0.00 0.00 0.00 79 1028.1
20210613082537 62 259 2.0 6.0 0.00 0.00 0.00 76 1028.1
20210613082052 62 227 1.0 6.0 0.00 0.00 0.00 78 1028.1
20210613081533 61 227 3.0 6.0 0.00 0.00 0.00 77 1028.2
20210613081037 61 272 1.0 4.0 0.00 0.00 0.00 80 1028.1
20210613080535 61 272 3.0 4.0 0.00 0.00 0.00 80 1028.0
20210613080033 60 273 0.0 3.0 0.00 0.00 0.00 80 1028.0
20210613075544 60 273 0.0 4.0 0.00 0.00 0.00 82 1028.0
20210613075047 60 273 2.0 6.0 0.00 0.00 0.00 82 1028.0
20210613074539 60 269 3.0 6.0 0.00 0.00 0.00 83 1028.0
20210613074042 60 325 2.0 5.0 0.00 0.00 0.00 84 1028.0
20210613073609 60 12 1.0 3.0 0.00 0.00 0.00 85 1027.9
20210613073039 59 12 2.0 3.0 0.00 0.00 0.00 85 1027.9
20210613072535 59 11 0.0 3.0 0.00 0.00 0.00 86 1027.9
20210613072033 58 12 1.0 4.0 0.00 0.00 0.00 86 1027.9
20210613071555 58 13 1.0 4.0 0.00 0.00 0.00 87 1027.8
20210613070543 58 13 1.0 4.0 0.00 0.00 0.00 88 1027.8
20210613070032 57 13 1.0 3.0 0.00 0.00 0.00 88 1027.8
20210613065545 57 13 1.0 3.0 0.00 0.00 0.00 88 1027.7
20210613065034 57 11 0.0 4.0 0.00 0.00 0.00 87 1027.7
20210613064543 57 11 1.0 4.0 0.00 0.00 0.00 87 1027.7
20210613063545 57 9 0.0 2.0 0.00 0.00 0.00 89 1027.6
20210613063036 56 9 1.0 4.0 0.00 0.00 0.00 90 1027.6
20210613062546 56 9 1.0 5.0 0.00 0.00 0.00 90 1027.5
20210613062112 56 360 2.0 5.0 0.00 0.00 0.00 91 1027.5
20210613061553 56 355 0.0 3.0 0.00 0.00 0.00 91 1027.5
20210613061042 56 355 0.0 3.0 0.00 0.00 0.00 92 1027.4
20210613060543 56 355 1.0 3.0 0.00 0.00 0.00 93 1027.3
20210613060028 55 355 0.0 4.0 0.00 0.00 0.00 93 1027.3
20210613055556 55 355 2.0 4.0 0.00 0.00 0.00 94 1027.3
20210613055025 55 337 0.0 3.0 0.00 0.00 0.00 94 1027.1
20210613054549 55 337 0.0 3.0 0.00 0.00 0.00 95 1027.1
20210613054037 55 337 0.0 2.0 0.00 0.00 0.00 95 1027.1
20210613053543 54 337 0.0 0.0 0.00 0.00 0.00 96 1027.1
20210613053051 54 337 0.0 0.0 0.00 0.00 0.00 96 1027.0
20210613052537 54 337 0.0 0.0 0.00 0.00 0.00 96 1027.0
20210613052023 54 337 0.0 0.0 0.00 0.00 0.00 96 1026.9
20210613051544 54 337 0.0 0.0 0.00 0.00 0.00 97 1026.9
20210613051025 53 337 0.0 0.0 0.00 0.00 0.00 97 1026.8
20210613050536 53 337 0.0 0.0 0.00 0.00 0.00 97 1027.0
20210613050031 53 337 0.0 0.0 0.00 0.00 0.00 97 1026.8
20210613045538 53 337 0.0 0.0 0.00 0.00 0.00 97 1026.8
20210613045037 53 337 0.0 0.0 0.00 0.00 0.00 97 1026.8
20210613044542 52 337 0.0 0.0 0.00 0.00 0.00 97 1026.7
20210613044044 52 337 0.0 0.0 0.00 0.00 0.00 97 1026.7
20210613043535 52 337 0.0 0.0 0.00 0.00 0.00 97 1026.7
20210613043039 52 337 0.0 0.0 0.00 0.00 0.00 97 1026.6
20210613042604 51 337 0.0 0.0 0.00 0.00 0.00 97 1026.6
20210613042034 52 336 0.0 0.0 0.00 0.00 0.00 97 1026.6
20210613041537 51 336 0.0 0.0 0.00 0.00 0.00 97 1026.5
20210613041049 51 337 0.0 0.0 0.00 0.00 0.00 97 1026.5
20210613040533 51 337 0.0 0.0 0.00 0.00 0.00 97 1026.4
20210613040040 51 336 0.0 0.0 0.00 0.00 0.00 97 1026.4
20210613035527 51 337 0.0 0.0 0.00 0.00 0.00 97 1026.4
20210613035032 51 337 0.0 0.0 0.00 0.00 0.00 97 1026.2
20210613034606 51 337 0.0 0.0 0.00 0.00 0.00 97 1026.2
20210613034032 51 337 0.0 0.0 0.00 0.00 0.00 97 1026.1